EW1744 Weather Reports


time (UTC)temp
F
wind
direction
speed
knots
gust
knots
rain 1hr
in
rain 24hr
in
rain mn
in
humidity
%
barometer
mb
20260507091531 49 326 0.9 5.2 0.00 0.00 0.00 85 1006.8
20260507091018 49 286 0.9 5.2 0.00 0.00 0.00 85 1007.1
20260507090246 49 303 0.0 4.3 0.00 0.00 0.00 85 1006.9
20260507085516 49 302 0.9 4.3 0.00 0.00 0.00 85 1007.2
20260507085016 49 294 0.9 4.3 0.00 0.00 0.00 84 1006.8
20260507085005 49 327 0.0 4.3 0.00 0.00 0.00 84 1006.7
20260507084015 49 313 0.0 2.6 0.00 0.00 0.00 84 1006.6
20260507083515 49 335 0.9 2.6 0.00 0.00 0.00 83 1006.8
20260507083016 50 294 0.9 2.6 0.00 0.00 0.00 83 1006.7
20260507082514 50 262 0.9 4.3 0.00 0.00 0.00 82 1006.4
20260507082014 50 39 1.7 7.0 0.00 0.00 0.00 81 1006.5
20260507081737 51 335 1.7 7.0 0.00 0.00 0.00 80 1006.6
20260507081012 51 33 2.6 7.8 0.00 0.00 0.00 79 1006.5
20260507080514 51 335 2.6 7.8 0.00 0.00 0.00 79 1006.8
20260507080012 51 319 2.6 7.8 0.00 0.00 0.00 80 1006.6
20260507075513 51 302 2.6 7.8 0.00 0.00 0.00 80 1006.5
20260507075231 51 288 1.7 7.0 0.00 0.00 0.00 80 1006.3
20260507074738 51 333 2.6 7.0 0.00 0.00 0.00 81 1006.1
20260507074008 51 278 2.6 7.0 0.00 0.00 0.00 81 1006.3
20260507073508 51 291 1.7 7.0 0.00 0.00 0.00 81 1006.3
20260507073008 51 300 1.7 7.0 0.00 0.00 0.00 80 1006.0
20260507072507 51 301 2.6 7.0 0.00 0.00 0.00 80 1006.2
20260507072009 51 287 2.6 7.8 0.00 0.00 0.00 80 1006.3
20260507071507 51 291 2.6 7.8 0.00 0.00 0.00 80 1006.6
20260507071002 51 315 1.7 7.8 0.00 0.00 0.00 80 1006.1
20260507070956 51 317 1.7 7.8 0.00 0.00 0.00 80 1006.0
20260507070004 51 329 1.7 7.0 0.00 0.00 0.00 80 1006.1
20260507065503 52 345 2.6 7.0 0.00 0.00 0.00 80 1006.1
20260507065016 52 269 2.6 7.0 0.00 0.00 0.00 80 1006.3
20260507064502 52 300 2.6 7.0 0.00 0.00 0.00 79 1005.8
20260507064002 52 288 2.6 5.2 0.00 0.00 0.00 79 1005.9
20260507063728 52 306 1.7 5.2 0.00 0.00 0.00 79 1005.9
20260507063003 52 274 1.7 7.0 0.00 0.00 0.00 80 1005.8
20260507062728 52 329 1.7 7.0 0.00 0.00 0.00 80 1005.7
20260507062239 52 298 2.6 7.8 0.00 0.00 0.00 79 1005.7
20260507061504 52 319 2.6 7.8 0.00 0.00 0.00 79 1005.8
20260507060957 52 301 1.7 8.7 0.00 0.00 0.00 80 1005.7
20260507060457 52 288 2.6 8.7 0.00 0.00 0.00 80 1005.7
20260507055957 53 20 1.7 7.0 0.00 0.00 0.00 80 1006.1
20260507055457 53 358 1.7 6.1 0.00 0.00 0.00 80 1006.0
20260507054958 53 307 0.9 6.1 0.00 0.00 0.00 80 1006.0
20260507054459 53 332 0.9 3.5 0.00 0.00 0.00 81 1006.1
20260507054001 53 348 0.9 6.1 0.00 0.00 0.00 81 1005.9
20260507053501 53 342 0.9 6.1 0.00 0.00 0.00 81 1006.1
20260507053001 53 304 0.9 6.1 0.00 0.00 0.00 81 1006.1
20260507052500 53 320 0.9 6.1 0.00 0.00 0.00 81 1005.9
20260507051958 54 323 0.9 6.1 0.00 0.00 0.00 81 1005.8
20260507051458 54 321 0.9 6.1 0.00 0.00 0.00 82 1005.5
20260507051216 54 319 1.7 6.1 0.00 0.00 0.00 81 1005.7
20260507050453 54 321 1.7 6.1 0.00 0.00 0.00 81 1005.7
20260507045951 54 333 1.7 6.1 0.00 0.00 0.00 81 1005.7
20260507045450 54 283 1.7 6.1 0.00 0.00 0.00 81 1005.7
20260507044948 55 311 1.7 6.1 0.00 0.00 0.00 82 1005.5
20260507044447 55 325 0.9 5.2 0.00 0.00 0.00 82 1005.7
20260507043947 55 46 0.9 7.0 0.00 0.00 0.00 82 1005.8
20260507043713 55 284 1.7 7.0 0.00 0.00 0.00 82 1006.0
20260507042947 55 274 1.7 7.0 0.00 0.00 0.00 82 1005.9
20260507042447 56 257 1.7 7.0 0.00 0.00 0.00 81 1005.8
20260507041947 56 340 1.7 5.2 0.00 0.00 0.00 81 1005.5
20260507041447 56 327 0.9 4.3 0.00 0.00 0.00 81 1005.4
20260507040948 56 336 1.7 12.2 0.00 0.00 0.00 81 1005.4
20260507040446 57 293 2.6 12.2 0.00 0.00 0.00 82 1005.3
20260507040203 57 319 3.5 12.2 0.00 0.00 0.00 82 1005.2
20260507035707 57 329 3.5 12.2 0.00 0.00 0.00 83 1005.1
20260507034942 58 294 2.6 7.8 0.00 0.00 0.00 85 1005.0
20260507034700 58 309 1.7 11.3 0.00 0.00 0.00 86 1004.9
20260507034211 59 345 2.6 11.3 0.00 0.00 0.00 87 1004.8
20260507033443 59 309 3.5 11.3 0.00 0.00 0.00 87 1004.8
20260507032956 59 311 2.6 11.3 0.00 0.00 0.00 88 1005.0
20260507032930 60 284 1.7 7.0 0.00 0.00 0.00 89 1005.0
20260507031943 60 281 0.9 4.3 0.00 0.00 0.00 90 1004.9
20260507031442 60 322 1.7 6.1 0.00 0.00 0.00 90 1004.8
20260507031204 60 327 2.6 6.1 0.00 0.00 0.00 90 1004.6
20260507030441 60 215 1.7 6.1 0.00 0.00 0.00 90 1004.4
20260507025941 60 288 1.7 6.1 0.00 0.00 0.00 90 1004.4
20260507025441 60 300 1.7 5.2 0.00 0.00 0.00 90 1004.3
20260507024941 60 266 1.7 4.3 0.00 0.00 0.00 90 1004.3
20260507024713 60 213 0.9 6.1 0.00 0.00 0.00 90 1004.3
20260507023955 60 288 1.7 6.1 0.00 0.00 0.00 90 1004.3
20260507023442 60 295 1.7 6.1 0.00 0.00 0.00 90 1004.3
20260507022940 60 297 1.7 6.1 0.00 0.00 0.00 90 1004.4
20260507022440 60 283 1.7 5.2 0.00 0.00 0.00 90 1004.4
20260507022201 60 335 1.7 5.2 0.00 0.00 0.00 90 1004.3
20260507021440 60 270 1.7 5.2 0.00 0.00 0.00 90 1004.5
20260507020939 60 298 1.7 5.2 0.00 0.00 0.00 90 1004.5
20260507020439 60 255 1.7 5.2 0.00 0.00 0.00 90 1004.6
20260507015939 60 248 1.7 5.2 0.00 0.00 0.00 90 1004.7
20260507015439 60 217 1.7 5.2 0.00 0.00 0.00 91 1004.6
20260507014938 60 330 1.7 5.2 0.00 0.00 0.00 91 1004.7
20260507014438 60 257 1.7 5.2 0.00 0.00 0.00 91 1004.8
20260507013938 60 263 1.7 5.2 0.00 0.00 0.00 91 1004.8
20260507013438 60 295 1.7 6.1 0.00 0.00 0.00 91 1004.8
20260507012938 59 262 1.7 6.1 0.00 0.00 0.00 92 1004.9
20260507012438 59 234 0.9 5.2 0.00 0.00 0.00 92 1004.8
20260507012155 59 264 0.9 5.2 0.00 0.00 0.00 91 1004.9
20260507011703 58 276 0.0 2.6 0.00 0.00 0.00 91 1005.0
20260507010937 58 264 0.0 2.6 0.00 0.00 0.00 91 1004.9
20260507010708 58 262 0.0 0.9 0.00 0.00 0.00 91 1004.9
20260507010417 58 238 0.0 0.9 0.00 0.00 0.00 91 1005.0
20260507005437 58 266 0.0 0.9 0.00 0.00 0.00 91 1005.0
20260507005155 58 266 0.0 0.9 0.00 0.00 0.00 91 1005.1
20260507004436 58 266 0.0 0.9 0.00 0.00 0.00 91 1005.1
20260507004206 58 162 0.0 0.9 0.00 0.00 0.00 91 1005.0
20260507003659 58 143 0.0 0.9 0.00 0.00 0.00 91 1004.9
20260507002936 58 220 0.0 0.9 0.00 0.00 0.00 91 1004.9
20260507002436 58 226 0.0 0.9 0.00 0.00 0.00 91 1005.0
20260507002211 58 140 0.0 0.9 0.00 0.00 0.00 91 1004.8
20260507001718 58 220 0.0 1.7 0.00 0.00 0.00 91 1004.9
20260507001154 58 262 0.0 1.7 0.00 0.00 0.00 91 1004.8
20260507000435 58 205 0.0 1.7 0.00 0.00 0.00 91 1004.8
20260506235933 58 203 0.0 1.7 0.00 0.00 0.00 91 1004.7
20260506235434 58 248 0.0 3.5 0.00 0.00 0.00 91 1004.7
20260506234934 58 153 0.0 3.5 0.00 0.00 0.00 90 1004.7
20260506234434 58 187 0.0 3.5 0.00 0.00 0.00 90 1004.9
20260506233931 58 180 0.0 3.5 0.00 0.00 0.00 90 1004.9
20260506233431 58 141 0.0 2.6 0.00 0.00 0.00 90 1004.8
20260506232933 58 138 0.0 2.6 0.00 0.00 0.00 90 1004.9
20260506232432 58 250 0.0 2.6 0.00 0.00 0.00 90 1005.0
20260506231932 58 219 0.0 1.7 0.00 0.00 0.00 90 1005.0
20260506231433 58 176 0.0 0.9 0.00 0.00 0.00 90 1005.0
20260506230932 58 132 0.0 0.9 0.00 0.00 0.00 90 1005.0
20260506230429 58 263 0.0 1.7 0.00 0.00 0.00 90 1005.0
20260506225929 58 240 0.0 1.7 0.00 0.00 0.00 90 1005.0
20260506225429 58 257 0.0 1.7 0.00 0.00 0.00 90 1005.0
20260506224929 58 234 0.0 1.7 0.00 0.00 0.00 90 1005.0
20260506224429 58 274 0.0 1.7 0.00 0.00 0.00 90 1005.0
20260506224415 58 210 0.0 0.9 0.00 0.00 0.00 90 1005.1
20260506223431 58 196 0.0 1.7 0.00 0.00 0.00 89 1005.1
20260506222930 59 146 0.0 1.7 0.00 0.00 0.00 89 1005.2
20260506222430 59 177 0.0 1.7 0.00 0.00 0.00 89 1005.2
20260506222420 59 170 0.0 1.7 0.00 0.00 0.00 89 1005.2
20260506221427 59 212 0.0 0.9 0.00 0.00 0.00 89 1005.3
20260506220927 59 133 0.0 0.9 0.00 0.00 0.00 89 1005.3
20260506220649 59 179 0.0 5.2 0.00 0.00 0.00 89 1005.4
20260506215926 59 188 0.0 5.2 0.00 0.00 0.00 89 1005.5
20260506215427 59 156 0.0 5.2 0.00 0.00 0.00 89 1005.5
20260506215150 59 224 0.0 5.2 0.00 0.00 0.00 89 1005.5
20260506214428 59 174 0.0 2.6 0.00 0.00 0.00 89 1005.5
20260506213928 59 156 0.9 3.5 0.00 0.00 0.00 89 1005.6
20260506213649 59 238 0.9 3.5 0.00 0.00 0.00 89 1005.7
20260506213151 59 250 0.9 5.2 0.00 0.00 0.00 88 1005.8
20260506212428 59 141 0.9 5.2 0.00 0.00 0.00 88 1005.9
20260506211928 59 250 0.9 5.2 0.00 0.00 0.00 88 1005.9
20260506211425 59 198 0.9 5.2 0.00 0.00 0.00 88 1005.9
20260506210925 59 119 0.9 2.6 0.00 0.00 0.00 88 1005.9
20260506210425 59 240 0.9 2.6 0.00 0.00 0.00 87 1005.9
20260506205925 59 175 0.9 2.6 0.00 0.00 0.00 87 1006.0
20260506205425 59 262 0.0 2.6 0.00 0.00 0.00 87 1006.0
20260506204925 60 269 0.0 2.6 0.00 0.00 0.00 86 1005.9
20260506204647 60 25 0.0 2.6 0.00 0.00 0.00 86 1006.0
20260506203927 60 181 0.0 2.6 0.00 0.00 0.00 86 1006.0
20260506203426 60 260 0.9 2.6 0.00 0.00 0.00 86 1006.1
20260506202926 60 265 0.9 4.3 0.00 0.00 0.00 85 1006.1
20260506202426 60 251 0.9 4.3 0.00 0.00 0.00 85 1006.1
20260506201926 61 179 0.9 3.5 0.00 0.00 0.00 85 1006.1
20260506201651 61 233 0.0 3.5 0.00 0.00 0.00 84 1006.0
20260506200924 61 250 0.0 3.5 0.00 0.00 0.00 84 1005.8
20260506200422 61 229 0.0 3.5 0.00 0.00 0.00 83 1005.8
20260506200149 62 243 0.0 3.5 0.00 0.00 0.00 82 1005.9
20260506195425 62 235 0.0 1.7 0.00 0.00 0.00 82 1005.9
20260506195145 62 172 0.0 1.7 0.00 0.00 0.00 82 1005.9
20260506194436 63 160 0.0 1.7 0.00 0.00 0.00 81 1005.9
20260506193924 63 271 0.0 0.9 0.00 0.00 0.00 81 1006.0
20260506193424 63 168 0.0 5.2 0.00 0.00 0.00 81 1006.2
20260506192924 63 262 0.0 5.2 0.00 0.00 0.00 80 1006.3
20260506192424 63 213 0.9 5.2 0.00 0.00 0.00 78 1006.5
20260506191921 63 276 0.9 5.2 0.00 0.00 0.00 77 1006.7
20260506191421 63 42 0.9 5.2 0.00 0.00 0.00 78 1006.4
20260506190920 63 193 0.9 3.5 0.00 0.00 0.00 77 1006.5
20260506190420 63 330 1.7 6.1 0.00 0.00 0.00 75 1006.4
20260506185921 64 235 1.7 6.1 0.00 0.00 0.00 75 1006.2
20260506185645 64 223 0.9 5.2 0.00 0.00 0.00 74 1006.2
20260506184922 64 128 0.9 5.2 0.00 0.00 0.00 74 1006.1
20260506184422 64 252 1.7 5.2 0.00 0.00 0.00 73 1006.1
20260506183922 64 158 0.9 4.3 0.00 0.00 0.00 72 1006.1
20260506183422 64 166 0.9 7.0 0.00 0.00 0.00 72 1006.2
20260506182923 65 14 1.7 7.0 0.00 0.00 0.00 71 1006.3
20260506182422 65 276 1.7 7.0 0.00 0.00 0.00 70 1006.3
20260506181919 65 240 1.7 7.0 0.00 0.00 0.00 68 1006.3
20260506181421 66 262 2.6 7.0 0.00 0.00 0.00 68 1006.4
20260506180920 66 278 2.6 7.0 0.00 0.00 0.00 68 1006.4
20260506180417 66 150 2.6 7.0 0.00 0.00 0.00 67 1006.3
20260506175916 66 110 2.6 7.0 0.00 0.00 0.00 67 1006.5
20260506175416 66 164 2.6 6.1 0.00 0.00 0.00 67 1006.5
20260506174917 66 217 2.6 6.1 0.00 0.00 0.00 67 1006.5
20260506174416 66 209 2.6 6.1 0.00 0.00 0.00 66 1006.5
20260506173916 67 195 2.6 7.0 0.00 0.00 0.00 66 1006.5
20260506173416 67 258 2.6 7.0 0.00 0.00 0.00 66 1006.6
20260506172917 67 37 2.6 8.7 0.00 0.00 0.00 66 1006.8
20260506172417 67 287 2.6 8.7 0.00 0.00 0.00 66 1006.7
20260506171917 67 143 2.6 8.7 0.00 0.00 0.00 65 1006.7
20260506171416 67 283 1.7 8.7 0.00 0.00 0.00 65 1006.8
20260506170914 67 269 1.7 7.0 0.00 0.00 0.00 66 1006.8
20260506170638 67 52 1.7 7.0 0.00 0.00 0.00 66 1006.9
20260506170136 67 296 1.7 7.0 0.00 0.00 0.00 66 1007.0
20260506165415 67 139 1.7 6.1 0.00 0.00 0.00 66 1007.0
20260506164913 67 203 0.9 6.1 0.00 0.00 0.00 66 1007.2
20260506164414 67 173 0.9 6.1 0.00 0.00 0.00 66 1007.2
20260506163913 67 292 1.7 5.2 0.00 0.00 0.00 66 1007.2
20260506163414 67 160 1.7 5.2 0.00 0.00 0.00 66 1007.3
20260506162914 67 236 1.7 5.2 0.00 0.00 0.00 67 1007.3
20260506162414 67 225 1.7 5.2 0.00 0.00 0.00 66 1007.4
20260506161913 67 195 1.7 5.2 0.00 0.00 0.00 66 1007.7
20260506161412 67 176 0.9 5.2 0.00 0.00 0.00 66 1007.7
20260506161144 67 226 1.7 5.2 0.00 0.00 0.00 67 1007.8
20260506160414 67 172 0.9 6.1 0.00 0.00 0.00 67 1007.9
20260506155926 67 134 0.9 6.1 0.00 0.00 0.00 67 1008.0
20260506155413 67 139 0.9 6.1 0.00 0.00 0.00 67 1008.0
20260506155141 67 62 0.9 6.1 0.00 0.00 0.00 67 1008.2
20260506154413 67 174 0.9 3.5 0.00 0.00 0.00 66 1008.3
20260506153914 67 233 0.9 3.5 0.00 0.00 0.00 66 1008.3
20260506153414 67 159 0.9 3.5 0.00 0.00 0.00 67 1008.4
20260506152913 67 73 0.9 2.6 0.00 0.00 0.00 67 1008.4
20260506152413 67 273 0.9 6.1 0.00 0.00 0.00 66 1008.4
20260506151913 68 183 0.9 6.1 0.00 0.00 0.00 66 1008.4
20260506151632 68 188 1.7 6.1 0.00 0.00 0.00 65 1008.4
20260506150913 69 137 0.9 6.1 0.00 0.00 0.00 64 1008.5
20260506150426 69 154 0.9 5.2 0.00 0.00 0.00 64 1008.6
20260506150129 70 255 1.7 5.2 0.00 0.00 0.00 64 1008.5
20260506145632 70 124 0.9 4.3 0.00 0.00 0.00 63 1008.4
20260506144913 71 160 0.9 3.5 0.00 0.00 0.00 62 1008.2
20260506144413 71 133 0.9 3.5 0.00 0.00 0.00 63 1008.3
20260506143913 71 278 0.0 6.1 0.00 0.00 0.00 64 1008.3
20260506143413 71 162 0.9 6.1 0.00 0.00 0.00 65 1008.2
20260506142913 70 271 1.7 6.1 0.00 0.00 0.00 65 1008.1
20260506142413 70 247 0.9 6.1 0.00 0.00 0.00 65 1008.2
20260506141913 69 72 0.9 5.2 0.00 0.00 0.00 65 1008.1
20260506141414 69 81 1.7 5.2 0.00 0.00 0.00 66 1008.1
20260506141132 69 179 1.7 7.0 0.00 0.00 0.00 66 1008.2
20260506140413 68 284 2.6 7.0 0.00 0.00 0.00 66 1008.2
20260506135913 68 210 2.6 7.8 0.00 0.00 0.00 66 1008.3
20260506135413 68 238 2.6 7.8 0.00 0.00 0.00 67 1008.4
20260506134913 68 287 1.7 7.8 0.00 0.00 0.00 67 1008.5
20260506134413 67 195 1.7 7.0 0.00 0.00 0.00 67 1008.6
20260506133912 67 274 1.7 7.0 0.00 0.00 0.00 68 1008.7
20260506133413 67 268 1.7 6.1 0.00 0.00 0.00 67 1008.7
20260506132913 67 236 1.7 6.1 0.00 0.00 0.00 68 1008.7
20260506132412 67 248 1.7 7.0 0.00 0.00 0.00 68 1008.6
20260506131913 67 255 1.7 7.0 0.00 0.00 0.00 67 1008.6
20260506131426 67 287 1.7 6.1 0.00 0.00 0.00 67 1008.8
20260506130913 67 225 1.7 7.8 0.00 0.00 0.00 68 1008.7
20260506130413 67 231 1.7 7.8 0.00 0.00 0.00 68 1008.7
20260506125913 67 341 1.7 7.8 0.00 0.00 0.00 68 1008.7
20260506125641 67 287 1.7 7.8 0.00 0.00 0.00 68 1008.5
20260506124912 67 257 1.7 7.0 0.00 0.00 0.00 69 1008.6
20260506124852 67 251 1.7 7.0 0.00 0.00 0.00 69 1008.6
20260506123914 66 342 2.6 7.0 0.00 0.00 0.00 69 1008.7
20260506123412 66 253 1.7 7.0 0.00 0.00 0.00 69 1008.8
20260506122911 66 243 1.7 6.1 0.00 0.00 0.00 69 1009.0
20260506122410 66 239 1.7 6.1 0.00 0.00 0.00 70 1008.9
20260506121909 65 176 0.9 4.3 0.00 0.00 0.00 70 1008.9
20260506121410 65 243 1.7 4.3 0.00 0.00 0.00 70 1008.8
20260506120910 65 295 1.7 4.3 0.00 0.00 0.00 70 1009.0
20260506120410 65 191 0.9 3.5 0.00 0.00 0.00 70 1009.1
20260506115909 65 278 0.9 5.2 0.00 0.00 0.00 70 1009.1
20260506115409 65 333 0.9 5.2 0.00 0.00 0.00 70 1009.1
20260506114909 65 205 0.9 5.2 0.00 0.00 0.00 70 1009.2
20260506114409 65 176 0.9 5.2 0.00 0.00 0.00 71 1009.3
20260506113909 64 230 0.9 3.5 0.00 0.00 0.00 71 1009.2
20260506113635 65 338 0.9 3.5 0.00 0.00 0.00 69 1009.4
20260506113133 64 240 0.9 5.2 0.00 0.00 0.00 70 1009.4
20260506112853 64 122 0.9 5.2 0.00 0.00 0.00 70 1009.4
20260506111908 64 283 0.9 5.2 0.00 0.00 0.00 70 1009.3
20260506111408 64 240 0.9 5.2 0.00 0.00 0.00 70 1009.2
20260506111131 64 93 0.9 4.3 0.00 0.00 0.00 71 1009.2
20260506110409 64 252 0.9 4.3 0.00 0.00 0.00 71 1009.4
20260506105908 64 233 0.9 6.1 0.00 0.00 0.00 71 1009.4
20260506105410 64 262 0.9 6.1 0.00 0.00 0.00 71 1009.3
20260506104908 64 284 1.7 6.1 0.00 0.00 0.00 71 1009.3
20260506104852 64 286 1.7 6.1 0.00 0.00 0.00 71 1009.4
20260506104134 63 220 0.9 6.1 0.00 0.00 0.00 71 1009.3
20260506103406 63 264 0.9 3.5 0.00 0.00 0.00 71 1009.4
20260506103128 63 304 0.9 3.5 0.00 0.00 0.00 71 1009.2
20260506102629 63 224 0.9 3.5 0.00 0.00 0.00 71 1009.3
20260506101906 63 257 0.9 3.5 0.00 0.00 0.00 71 1009.4
20260506101407 63 295 0.9 3.5 0.00 0.00 0.00 71 1009.5
20260506100906 63 262 0.9 5.2 0.00 0.00 0.00 70 1009.4
20260506100407 63 272 1.7 5.2 0.00 0.00 0.00 70 1009.4
20260506095907 63 245 1.7 6.1 0.00 0.00 0.00 70 1009.2
20260506095407 63 309 1.7 6.1 0.00 0.00 0.00 70 1009.2
20260506095130 63 259 1.7 7.0 0.00 0.00 0.00 70 1009.3
20260506094406 63 276 2.6 7.8 0.00 0.00 0.00 70 1009.3
20260506093907 63 303 1.7 7.8 0.00 0.00 0.00 70 1009.3
20260506093404 63 214 1.7 6.1 0.00 0.00 0.00 70 1009.2
20260506092903 63 270 1.7 6.1 0.00 0.00 0.00 70 1009.2
20260506092404 63 231 1.7 6.1 0.00 0.00 0.00 70 1009.2
20260506091904 63 255 1.7 6.1 0.00 0.00 0.00 69 1009.2